Orbital Elements at Epoch 2459000.5 (2020-May-31.0) TDB
Reference: JPL 19 (heliocentric ecliptic J2000)
Element | Value | Uncertainty (1-sigma) | Units |
e | .09024214867160284 | 4.1903e-08 | |
a | 2.265927695614363 | 9.8e-09 | au |
q | 2.061445511627629 | 9.748e-08 | au |
i | 8.350611285828077 | 4.9731e-06 | deg |
node | 351.6348032932216 | 2.9513e-05 | deg |
peri | 81.52307503145845 | 4.0976e-05 | deg |
M | 332.4258216146021 | 2.9018e-05 | deg |
tp | 2459095.926188678307 (2020-Sep-03.42618868) | 0.00010064 | TDB |
period | 1245.854996803198 3.41 | 8.0824e-06 2.213e-08 | d yr |
n | .2889581860840483 | 1.8746e-09 | deg/d |
Q | 2.470409879601096 | 1.0684e-08 | au |
|
| | Orbit Determination Parameters
Additional Information
|